www.pogodaiklimat.ru
ПОГОДА в Крествью
Время
и дата
05:17 30.11
05:37 30.11
05:39 30.11
05:47 30.11
05:55 30.11
06:01 30.11
06:55 30.11
06:57 30.11
07:05 30.11
07:13 30.11
07:19 30.11
07:23 30.11
07:25 30.11
07:32 30.11
07:41 30.11
07:43 30.11
07:49 30.11
07:55 30.11
07:56 30.11
07:58 30.11
07:59 30.11
08:01 30.11
08:05 30.11
08:08 30.11
08:12 30.11
08:14 30.11
08:15 30.11
08:27 30.11
08:35 30.11
08:38 30.11
08:55 30.11
09:37 30.11
09:55 30.11
09:57 30.11
10:01 30.11
10:22 30.11
10:26 30.11
10:32 30.11
10:33 30.11
10:35 30.11
10:55 30.11
11:32 30.11
11:55 30.11
12:19 30.11
12:45 30.11
12:55 30.11
13:55 30.11
14:55 30.11
Ветер
(напр.,м/с)
Видим. Явления Облачность Т
(С)
Тd
(С)
f
(%)
Тe
(С)
Тes
(С)
Комфортность P
(гПа)
Po
(гПа)
Тmin
(С)
Tmax
(С)
R
(мм)
R24
(мм)
S
(см)
Ю 6 16 км 10/10 210 м +23.0 +22.0 94 +31 +31 очень
душно
1014.5 1007.4
ЮЗ 6 16 км 8/8 270 м +23.0 +22.0 94 +31 +31 очень
душно
1014.5 1007.4
ЮЗ 6 16 км 5/5 270 м +23.0 +22.0 94 +31 +31 очень
душно
1014.5 1007.4
ЮЗ 6 16 км 8/8 +23.0 +22.0 94 +31 +31 очень
душно
1014.5 1007.4
ЮЗ 6 16 км 8/8 +23.4 +21.8 91 +32 +32 очень
душно
1014.1 1007.0
ЮЗ 6 16 км 8/8 300 м +23.0 +22.0 94 +31 +31 очень
душно
1014.5 1007.4
ЮЗ 7
{11}
16 км 8/8 300 м +23.7 +21.7 89 +30 +30 очень
душно
1014.8 1007.7 +21.9 +23.7 0.3 0.3
ЮЗ 7
{11}
16 км 5/5 300 м +24.0 +22.0 89 +31 +31 очень
душно
1014.8 1007.7
ЮЗ 7 16 км 8/8 300 м +24.0 +22.0 89 +31 +31 очень
душно
1015.2 1008.0
ЮЗ 5 16 км 8/8 +24.0 +22.0 89 +31 +31 очень
душно
1014.8 1007.7
ЮЗ 7 16 км 8/8 300 м +24.0 +22.0 89 +31 +31 очень
душно
1015.2 1008.0
ЮЗ 6
{9}
16 км 5/5 300 м +24.0 +22.0 89 +31 +31 очень
душно
1015.2 1008.0
ЮЗ 5
{9}
16 км 8/8 +24.0 +22.0 89 +31 +31 очень
душно
1015.2 1008.0
ЮЗ 5 16 км слабый дождь 8/8
[Ns]
+24.0 +22.0 89 +31 +31 очень
душно
1015.5 1008.4
ЮЗ 5 16 км 8/8 300 м +24.0 +22.0 89 +31 +31 очень
душно
1015.2 1008.0
Ю 4 16 км гроза, дождь 8/8 300 m
[Cb]
+24.0 +22.0 89 +31 +31 очень
душно
1015.2 1008.0
ЮЗ 5 16 км гроза, слабый дождь 10/10 270 m
[Cb]
+24.0 +22.0 89 +31 +31 очень
душно
1015.5 1008.4
ЮЗ 5 16 км гроза, слабый дождь 10/10 270 m
[Cb]
+23.5 +21.9 91 +30 +30 очень
душно
1015.8 1008.7
ЮЗ 4 16 км гроза 10/10 270 m
[Cb]
+24.0 +22.0 89 +31 +31 очень
душно
1016.2 1009.0
СЗ 9
{13}
16 км гроза 10/10 270 m
[Cb]
+24.0 +22.0 89 +31 +31 очень
душно
1017.5 1010.4
СЗ 11
{17}
16 км гроза 10/10 270 m
[Cb]
+24.0 +22.0 89 +31 +31 очень
душно
1017.9 1010.7
СЗ 12
{17}
13 км гроза со слабым дождем 10/10 270 m
[Cb]
+23.0 +21.0 89 +31 +31 очень
душно
1017.9 1010.7
С 7
{17}
6 км гроза с сильным дождем, дымка 10/10 270 m
[Cb]
+21.0 +19.0 88 +25 +25 комфорт 1016.5 1009.4
С 10
{17}
1 км гроза с сильным дождем, дымка 10/10 60 m
[Cb]
+20.0 +18.0 88 +22 +22 комфорт 1015.9 1008.7
СЗ 9
{15}
2 км гроза со слабым дождем, дымка 5/5 60 m
[Cb]
+19.0 +18.0 94 +20 +20 1015.9 1008.7
СЗ 9
{15}
4 км гроза со слабым дождем, дымка 5/5 60 m
[Cb]
+19.0 +18.0 94 +20 +20 1015.9 1008.7
СЗ 9
{15}
5 км гроза, дымка 5/5 60 m
[Cb]
+19.0 +18.0 94 +20 +20 1015.9 1008.7
З 5 13 км гроза со слабым дождем ясно +20.0 +18.0 88 +23 +23 комфорт 1016.6 1009.4
З 4 16 км гроза, слабый дождь 10/10 1800 m
[Cb]
+20.0 +18.0 88 +23 +23 комфорт 1016.6 1009.4
З 5 16 км гроза, слабый дождь 10/10 60 m
[Cb]
+20.0 +18.0 88 +23 +23 комфорт 1017.2 1010.1
СЗ 5 10 км слабый дождь, дымка 10/10 60 m
[Ns]
+19.4 +18.2 93 +21 +21 комфорт 1017.9 1010.7
З 5 16 км гроза, слабый дождь 8/8 210 m
[Cb]
+19.0 +18.0 94 +20 +20 1018.9 1011.7
З 5 14 км дождь 10/8 210 m
[Ac Ns]
+19.2 +18.2 94 +21 +21 комфорт 1019.6 1012.4 25.1
З 4 11 км дождь 10/5 210 m
[Ac Ns]
+19.0 +18.0 94 +21 +21 комфорт 1019.3 1012.1
СЗ 2 8 км дождь, дымка 10/5 150 m
[Ac Ns]
+19.0 +18.0 94 +21 +22 комфорт 1018.9 1011.7
СЗ 2 16 км слабый дождь 8/8
[Ns]
+19.0 +18.0 94 +21 +22 комфорт 1018.9 1011.7
С 3 16 км слабый дождь 5/5 60 m
[Ns]
+19.0 +18.0 94 +21 +22 комфорт 1018.6 1011.4
С 4 16 км слабая морось 8/8 60 m
[St]
+19.0 +18.0 94 +21 +21 комфорт 1018.9 1011.7
С 3 16 км 8/8 60 м +19.0 +18.0 94 +21 +21 комфорт 1018.9 1011.7
СЗ 4 16 км 5/5 60 м +19.0 +18.0 94 +21 +22 комфорт 1018.9 1011.7
СЗ 3 16 км 2/2 750 м +19.4 +18.6 95 +22 +24 комфорт 1019.3 1012.1
СЗ 3 16 км 5/2 180 m
[Ac]
+20.0 +19.0 94 +24 +27 комфорт 1019.9 1012.7
С 4 16 км 2/2 180 m
[Ac]
+20.3 +18.4 89 +24 +27 комфорт 1019.9 1012.7
С 5 16 км 8/8 +21.0 +18.0 83 +25 +26 комфорт 1019.9 1012.7
С 6 16 км 5/5 420 м +22.0 +18.0 78 +27 +28 душно 1019.6 1012.4
С 5 16 км 5/2 450 m
[Ac]
+22.4 +17.7 75 +27 +30 душно 1019.6 1012.4 +19.1 +23.7 27.7
С 5 16 км н/о +22.6 +17.1 71 +27 +27 душно 1019.2 1012.1
С 4 16 км 2/2 1080 м +24.0 +15.2 58 +27 +31 жарко 1019.2 1012.1
Местоположение метеостанции Duke Field Airport: широта 30.6500 долгота -86.5167 высота над уровнем моря 59 м.
В архиве по умолчанию представлена погода в Крествью за последние 1-2 суток. Обновление информации о фактической погоде в базе происходит ежечасно! Архивные данные за месяц целиком и за предыдущие месяцы Вы можете получить, выбрав интересующий диапазон дат из раскрывающегося списка и нажав кнопку "Ввод!".
Внимание! Архив погоды МЕТАР в базе сайта по станциям, не включенным в климатический монитор, хранится не более 60 дней. Нет смысла пытаться выбрать более раннюю дату.
*Определитесь, кто Вы:
Внимание! Время в таблицах - местное (без учета летнего времени). Для получения всемирного времени необходимо вычесть поправку, которая равна -5 ч.
Смотрите также архив погоды в соседних городах и на ближайших метеорологических станциях:
Партнеры нашего сайта:      
Пояснения к столбцам:
  • Ветер - указаны скорость ветра в м/с - средняя за 10 мин, порывы в срок и между сроками (в фигурных скобках) и направление, откуда дует ветер: С - северный,
  • СВ - северо-восточный, В - восточный, ЮВ - юго-восточный, Ю - южный, ЮЗ - юго-западный, З - западный, СЗ - северо-западный.
  • Видимость - горизонтальная дальность видимости в метрах или километрах. При видимости от 1 до 10 км при отсутствии осадков обычно наблюдается дымка, при ухудшении видимости до 1 км и менее - туман. В сухую погоду видимость может ухудшаться дымом, пылью или мглою.
  • Явления - указаны атмосферные явления, наблюдавшиеся в срок или в последний час перед сроком; фигурными скобками обозначены явления, наблюдавшиеся между сроками (за 1-3 часа до срока); квадратными скобками обозначены град или гололедные отложения с указанием их диаметра в мм.
  • Облачность - указаны через наклонную черту общая и нижняя облачность в баллах и высота нижней границы облаков в метрах; квадратными скобками обозначены формы облаков: Ci - перистые, Cs - перисто-слоистые, Cc - перисто-кучевые, Ac - высококучевые, As - высокослоистые, Sc - слоисто-кучевые, Ns - слоисто-дождевые, Cu - кучевые, Cb - кучево-дождевые. Подробнее классификацию облаков см. в Атласе облаков (PDF).
  • T - Температура воздуха - температура, измеренная на высоте 2 м над землей.
  • Td - Температура точки росы - температура, при понижении до которой содержащийся в воздухе водяной пар достигнет насыщения.
  • f - Относительная влажность воздуха - влажноcть воздуха, измеренная на высоте 2 м над землей.
  • Te - Эффективная температура - температура, которую ощущает одетый по сезону человек в тени. Характеристика душности погоды. При расчете учитывается влияние влажности воздуха и скорости ветра на теплоощущения человека.
  • Tes - Эффективная температура на солнце - температура, которую ощущает человек, с поправкой на солнечный нагрев. Характеристика знойности погоды. Зависит от высоты солнца над горизонтом, облачности и скорости ветра. Ночью, в пасмурную погоду, а также при ветре 12 м/с и более поправка равна нулю.
  • P - Атмосферное давление - приведенное к уровню моря атмосферное давление.
  • Po - Атмосферное давление - измеренное на уровне метеостанции атмосферное давление.
  • Tmin - Минимальная температура - минимум температуры воздуха на высоте 2 м над землей.
  • Tmax - Максимальная температура - максимум температуры воздуха на высоте 2 м над землей.
  • R - Количество осадков - Количество выпавших осадков за период времени, мм. При наведении курсора мыши на число - период времени, за который выпало указанное количество осадков.
  • R24 - Количество осадков - Количество выпавших осадков за 24 часа, мм.
  • S - Снежный покров - Высота снежного покрова, см. При наведении курсора мыши на число - состояние снежного покрова и степень покрытия местности в баллах.